User: anonymous   Login
Location: Unspecified
(0.0000°N, 0.0000°E)
Time: 13:40:38
(UTC+01:00)
Language:

ARIANE 5 R/B - Orbit

View from above orbital plane
View from above orbital plane
View from above satellite
View from above satellite

Ground track
Ground track

The orbit data is extracted from the following two-line orbital elements,

1 29646U 06054D   17349.41337350 +.00000735 +00000-0 +26644-3 0  9992
2 29646 002.6126 239.1717 7076663 128.9281 319.0354 02.52478763096309
Epoch (UTC): 15 December 2017 09:55:15
Eccentricity: 0.7076663
inclination: 2.6126°
perigee height: 282 km
apogee height: 32525 km
right ascension of ascending node: 239.1717°
argument of perigee: 128.9281°
revolutions per day: 2.52478763
mean anomaly at epoch: 319.0354°
orbit number at epoch: 9630

The dashed part of the orbit path shows where the satellite is in the earth's shadow,  

DLR